Home   Weather   Wals-Siezenheim   Past weeks

Flag for Austria Past Weather in Wals-Siezenheim, Salzburg, Austria — Yesterday and Last 2 Weeks

Now
7 °F

Ice fog.


Feels Like: 0 °F
Forecast: 9 / 22 °F
Wind: 3 mph from South

Location: Salzburg-Flughafen

Current Time: Jan 23, 2017 at 3:34:53 am

Latest Report: Jan 23, 2017 at 2:50 am


Visibility: 0 mi

Pressure: 30.21 "Hg

Humidity: N/A

Dew Point: N/A

Location of Wals-SiezenheimLocation

Past Weather in Wals-Siezenheim — Graph

°F

Wals-Siezenheim Temperature Yesterday

Maximum temperature yesterday: 21 °F (at 2:50 pm)
Minimum temperature yesterday: 3 °F (at 12:20 am)
Average temperature yesterday: 12 °F

High & Low Weather Summary for the Past Weeks

 TemperatureHumidityPressure
High41 °F (Jan 11, 10:50 pm)100% (Jan 8, 9:20 am)30.51 "Hg (Jan 8, 9:20 am)
Low1 °F (Jan 19, 6:20 am)41% (Jan 13, 12:20 pm)29.36 "Hg (Jan 13, 3:50 am)
Average23 °F86%30.15 "Hg
* Reported Jan 8 2:20 am — Jan 23 2:20 am, Wals-Siezenheim, Weather by CustomWeather, © 2017

Note: Actual official high and low records may vary slightly from our data, if they occured in-between our weather recording intervals... More about our weather records

Advertising

Wals-Siezenheim Weather History for the Previous 24 Hours

Scroll right to see more
 ConditionsComfort  
Time TempWeatherWind HumidityBarometerVisibility
2:20 am
Mon, Jan 23
7 °FFrigid.2 mph85%30.21 "Hg1 mi
1:50 am7 °FFrigid.1 mph85%30.24 "Hg2 mi
12:50 am9 °FIce fog.1 mph92%30.21 "Hg0 mi
12:20 am9 °FPassing clouds.2 mph92%30.21 "Hg0 mi
11:50 pm
Sun, Jan 22
9 °FLight freezing rain. Passing clouds.3 mph92%30.21 "Hg2 mi
11:20 pm5 °FLight freezing rain. Passing clouds.3 mph85%30.21 "Hg3 mi
10:50 pm7 °FLight freezing rain. Passing clouds.2 mph92%30.21 "Hg2 mi
10:20 pm7 °FLight freezing rain. Clear.2 mph92%30.21 "Hg2 mi
9:50 pm7 °FLight freezing rain. Clear.1 mph92%30.21 "Hg2 mi
9:20 pm9 °FLight freezing rain. Clear.2 mph85%30.21 "Hg2 mi
8:50 pm9 °FLight freezing rain. Clear.1 mph92%30.21 "Hg2 mi
8:20 pm10 °FLight freezing rain. Clear.1 mph92%30.21 "Hg2 mi
7:50 pm10 °FLight freezing rain. Clear.2 mph92%30.21 "Hg2 mi
7:20 pm10 °FLight freezing rain. Clear.1 mph92%30.21 "Hg2 mi
6:50 pm12 °FLight freezing rain. Clear.1 mph92%30.21 "Hg2 mi
6:20 pm12 °FLight freezing rain. Clear.1 mph92%30.21 "Hg2 mi
5:50 pm14 °FLight freezing rain. Clear.1 mph85%30.21 "Hg2 mi
5:20 pm19 °FLight freezing rain. Clear.1 mph79%30.21 "Hg2 mi
4:50 pm19 °FSunny.3 mph79%30.21 "Hg2 mi
4:20 pm21 °FSunny.3 mph74%30.21 "Hg3 mi
3:50 pm21 °FSunny.2 mph80%30.21 "Hg3 mi
3:20 pm21 °FLight freezing rain. Sunny.3 mph80%30.21 "Hg3 mi
2:50 pm21 °FLight freezing rain. Sunny.3 mph80%30.21 "Hg3 mi
2:20 pm19 °FLight freezing rain. Sunny.3 mph86%30.21 "Hg3 mi
1:50 pm18 °FLight freezing rain. Sunny.5 mph93%30.21 "Hg3 mi
1:20 pm18 °FLight freezing rain. Sunny.3 mph93%30.24 "Hg3 mi
12:50 pm16 °FLight freezing rain. Sunny.5 mph93%30.24 "Hg3 mi
12:20 pm14 °FLight freezing rain. Sunny.5 mph92%30.24 "Hg2 mi
11:50 am14 °FLight freezing rain. Sunny.5 mph85%30.27 "Hg2 mi
11:20 am12 °FLight freezing rain. Sunny.5 mph92%30.27 "Hg2 mi
10:50 am10 °FLight freezing rain. Passing clouds.2 mph92%30.27 "Hg2 mi
10:20 am10 °FLight freezing rain. Passing clouds.2 mph85%30.30 "Hg2 mi
9:50 am9 °FLight freezing rain. Passing clouds.2 mph92%30.30 "Hg2 mi
9:20 am9 °FLight freezing rain. Scattered clouds.3 mph85%30.30 "Hg1 mi
8:50 am9 °FPartly sunny.2 mph85%30.30 "Hg1 mi
8:20 am9 °FFrigid.2 mph85%30.30 "Hg1 mi
7:50 am9 °FLight freezing rain. Partly sunny.2 mph85%30.30 "Hg1 mi
7:20 am9 °FFrigid.3 mph92%30.27 "Hg1 mi
6:50 am9 °FIce fog.2 mph92%30.30 "Hg1 mi
6:20 am9 °FIce fog.3 mph92%30.30 "Hg0 mi
5:50 am9 °FIce fog.2 mph92%30.30 "Hg0 mi
5:20 am10 °FIce fog.3 mph85%30.30 "Hg0 mi
4:50 am9 °FIce fog.2 mph92%30.30 "Hg0 mi
4:20 am9 °FIce fog.1 mph92%30.30 "Hg0 mi
3:50 am10 °FIce fog.1 mph85%30.30 "Hg0 mi
3:20 am10 °FIce fog.2 mph85%30.30 "Hg0 mi
Weather by CustomWeather, © 2017

See weather overviewHow to use our weather pages